Погода в Танжере

Марокко     35°45′39″N   5°48′33″W
темп.,
°C
ветер,
м/с
пор.,
м/с
влажн.,
%
обл.,
%
осадки,
мм/ч
давл.,
гПа
погр.,
м
17 мая, пн
пн1701:00+19зюз126476 0.0 101446
04:00+18зюз227288 0.0 101557
07:00+17юз238156 0.0 101676
10:00+22зсз455911 0.0 1017482
13:00+26зсз564570 0.0 1017749
16:00+26зсз3443100 0.0 1016605
19:00+24зсз25415 0.0 1017372
22:00+20всв22530 0.0 101839
18 мая, вт
вт1801:00+18в33785 0.0 101979
04:00+17в34895 0.0 1018114
07:00+17всв359238 0.0 1019186
10:00+22всв456784 0.0 1019462
13:00+26св55480 0.0 1019804
16:00+28св553914 0.0 1017878
19:00+24ссв455622 0.0 1017258
22:00+21всв116816 0.0 101914
19 мая, ср
ср1901:00+20в116485 0.0 101811
04:00+18св11694 0.0 101712
07:00+19вюв11645 0.0 101812
10:00+25св23445 0.0 1018319
13:00+30св55335 0.0 10171050
16:00+28всв89385 0.0 1017617
19:00+23всв610575 0.0 1017419
22:00+18всв612875 0.0 1020293
20 мая, чт
чт2001:00+18всв715891 0.0 1019437
04:00+18в917885 0.0 1018574
07:00+18в1017865 0.0 1018617
10:00+21в1217685 0.0 1018695
13:00+23в1317615 0.0 1018759
16:00+23в1217605 0.0 1017709
19:00+20в1120745 0.0 1017638
22:00+18в1121815 0.0 1018618
21 мая, пт
пт2101:00+17в1020810 0.0 1017625
04:00+17в10188330 0.0 1017560
07:00+17в1018815 0.0 1016571
10:00+21в10156542 0.0 1017628
13:00+23в10125740 0.0 1016651
16:00+23всв811575 0.0 1016569
19:00+22всв611602 0.0 1014391
22:00+17всв47875 0.0 1016207